C/2017 K6 ( Jacques )

Japanese version
Home page
Updated on August 25, 2017

---------------------------------------------------------------------

* Profile

Discovery Date May 29, 2017
Magnitude 17.5 mag
Discoverer Cristovao Jacques (SONEAR Observatory at Oliveira)

* Pictures

* Orbital Elements

Epoch 2018 Jan. 2.0 TT = JDT 2458120.5
T 2018 Jan. 3.14159 TT                                  MPCW
q   2.0027042            (2000.0)            P               Q
z  +0.0009642      Peri.  303.84183     +0.49569069     -0.22851097
 +/-0.0000198      Node    85.05180     +0.75134930     +0.59673452
e   0.9980690      Incl.   57.24933     -0.43562022     +0.76921431
From 102 observations 2017 May 29-Aug. 13, mean residual 0".5.

* Finding Charts

* Magnitudes Graph

        m1 = 10.0 + 5 log d + 10.0 log r

---------------------------------------------------------------------

The orbital elements are published on M.P.E.C. 2017-Q100.
The charts are made with StellaNavigator Ver.10 (AstroArts).
The magnitudes graphs are made with Comet for Windows.

---------------------------------------------------------------------

Copyright(C) Seiichi Yoshida (comet@aerith.net). All rights reserved.